Погода в Бороздинке

Россия / Курганская область     54°54′12″N   62°55′37″E
темп.,
°C
ветер,
м/с
пор.,
м/с
влажн.,
%
обл.,
%
осадки,
мм/ч
давл.,
гПа
погр.,
м
14 мая, пт
пт1423:00+19ссв11477 0.0 102511
02:00+18с11465 0.0 102511
05:00+16всв11535 0.0 102611
08:00+22ююв11425 0.0 1026191
11:00+27ю22305 0.0 10261360
14:00+29юз23240 0.0 10252718
17:00+30зюз23222 0.0 10243044
20:00+26ююз22334 0.0 102314
15 мая, сб
сб1523:00+21ююз333963 0.0 102350
02:00+20юз22415 0.0 102211
05:00+17сз34552 0.0 102348
08:00+22сз33455 0.0 1023242
11:00+28зсз34315 0.0 10221212
14:00+30з56225 0.0 10212798
17:00+30зсз56225 0.0 10202794
20:00+26з3436100 0.0 101944
16 мая, вс
вс1623:00+21зсз35448 0.0 102071
02:00+19зсз465248 0.0 102081
05:00+17зсз45595 0.0 102178
08:00+22зсз4648100 0.0 1022259
11:00+28зсз453249 0.0 1021900
14:00+31зсз562140 0.0 10202528
17:00+31зсз452099 0.0 10193169
20:00+27зюз333330 0.0 101931
17 мая, пн
пн1723:00+24ссз48375 0.0 1019151
02:00+21зсз22425 0.0 102014
05:00+18з33475 0.0 102036
08:00+24сз23395 0.0 1020227
11:00+29з45261 0.0 10191638
14:00+31з58205 0.0 10183917
17:00+31з571924 0.0 10163724
20:00+22сз234716 0.4 101766
18 мая, вт
вт1823:00+22зсз494353 0.4 1016136
02:00+19з3654100 0.0 101699
05:00+17зсз356466 0.1 101679
08:00+22зсз5853100 0.0 1016331
11:00+26сз794153 0.0 10151344
14:00+28сз7103399 0.0 10142720
17:00+28сз7112749 0.0 10142785
20:00+23сз5114095 0.0 1014305